Location: Unspecified
(0.0000°N, 0.0000°E)
Time: 01:22:02
(UTC+00:00)

Vanguard 3 - Pass Details

Date: 25 November 2019
Orbit: 508 x 3263 km, 33.3° (Epoch: 11 December)

Event Time Altitude Azimuth Distance (km) Brightness Sun altitude
Rises 06:55:28 0° 214° (SW) 3,586 10.3 16.0°
Reaches altitude 10° 06:57:48 10° 205° (SSW) 2,907 10.0 16.6°
Maximum altitude 07:04:35 38° 138° (SE) 2,180 10.6 18.1°
Drops below altitude 10° 07:15:57 10° 75° (ENE) 4,884 12.1 20.8°
Sets 07:21:09 0° 68° (ENE) 6,334 12.4 22.0°
